Погода в Новопскове

Украина / Луганская область     49°31′47″N   39°07′02″E
темп.,
°C
ветер,
м/с
пор.,
м/с
влажн.,
%
обл.,
%
осадки,
мм/ч
давл.,
гПа
погр.,
м
18 августа, чт
чт1800:00+24в474277 0.0 1007118
03:00+21всв22488 0.0 100716
06:00+21ссз00528 0.0 100711
09:00+28з33339 0.0 1007513
12:00+33з432970 0.0 10071855
15:00+34зсз342463 0.0 10063393
18:00+30зсз563398 0.0 1006368
21:00+24с495632 0.3 1007170
19 августа, пт
пт1900:00+21в376817 0.0 1008130
03:00+20всв478437 0.0 1008194
06:00+19св487953 0.0 1009225
09:00+23в686794 2.1 1010732
12:00+29в66459 0.1 10101430
15:00+32св55375 0.1 10092081
18:00+21в3984100 13.7 1011268
21:00+19в5987100 24.8 1011193
20 августа, сб
сб2000:00+20с1191100 2.3 101346
03:00+20в41573100 4.4 1013363
06:00+20вюв61656100 0.0 1014476
09:00+23вюв61342100 0.0 1016687
12:00+26в81136100 0.0 10161349
15:00+31юв81327100 0.0 10143067
18:00+27ююв10163674 0.0 1015867
21:00+27вюв61430100 0.0 1015646
21 августа, вс
вс2100:00+25вюв81530100 0.0 1017967
03:00+23вюв61330100 0.0 1017690
06:00+21вюв61432100 0.0 1018520
09:00+24вюв81328100 0.0 1017706
12:00+29вюв81119100 0.0 10171612
15:00+30вюв81116100 0.0 10162288
18:00+29в61120100 0.0 1015461
21:00+24всв51320100 0.0 1016240
22 августа, пн
пн2200:00+23в61519100 0.0 1015346
03:00+22в51329100 0.0 1015353
06:00+22в6144197 0.0 1016621
09:00+25вюв8143587 0.0 10161056
12:00+31вюв10132391 0.0 10152329
15:00+32вюв9121993 0.0 10152802
18:00+31в7122151 0.0 1015935
21:00+26в5152451 0.0 1016344